Hourly Weather Pinsk

Today, 8 August, Saturday

Time Temperature Precipitation Wind Pressure Humidity
00:00 +20°C° 0 mm 2 mps 755 mmHg 88%
01:00 +19°C° 0 mm 2 mps 755 mmHg 90%
02:00 +19°C° 0 mm 2 mps 756 mmHg 93%
03:00 +18°C° 0 mm 2 mps 755 mmHg 93%
04:00 +18°C° 0 mm 2 mps 755 mmHg 94%
05:00 +18°C° 0 mm 2 mps 755 mmHg 95%
06:00 +19°C° 0 mm 2 mps 755 mmHg 90%
07:00 +21°C° 0 mm 2 mps 755 mmHg 85%
08:00 +24°C° 0 mm 2 mps 756 mmHg 79%
09:00 +25°C° 0 mm 2 mps 756 mmHg 74%
10:00 +26°C° 0 mm 2 mps 755 mmHg 69%
11:00 +27°C° 0 mm 2 mps 755 mmHg 64%
12:00 +28°C° 0 mm 2 mps 755 mmHg 63%
13:00 +28°C° 0 mm 2 mps 755 mmHg 62%
14:00 +28°C° 0 mm 2 mps 754 mmHg 60%
15:00 +28°C° 0.5 mm 2 mps 754 mmHg 61%
16:00 +28°C° 0.5 mm 2 mps 753 mmHg 63%
17:00 +28°C° 0.5 mm 2 mps 753 mmHg 64%
18:00 +26°C° 0.9 mm 2 mps 753 mmHg 70%
19:00 +25°C° 0.9 mm 1 mps 753 mmHg 76%
20:00 +23°C° 0.9 mm 1 mps 753 mmHg 81%
21:00 +22°C° 0.2 mm 1 mps 753 mmHg 84%
22:00 +22°C° 0.2 mm 1 mps 753 mmHg 86%
23:00 +21°C° 0.2 mm 1 mps 752 mmHg 89%

Tomorrow, 9 August, Sunday

Time Temperature Precipitation Wind Pressure Humidity
00:00 +21°C° 0 mm 1 mps 752 mmHg 90%
01:00 +20°C° 0 mm 1 mps 752 mmHg 91%
02:00 +20°C° 0 mm 1 mps 752 mmHg 92%
03:00 +20°C° 0 mm 1 mps 752 mmHg 92%
04:00 +19°C° 0 mm 1 mps 752 mmHg 93%
05:00 +19°C° 0 mm 1 mps 752 mmHg 93%
06:00 +20°C° 0 mm 1 mps 752 mmHg 89%
07:00 +22°C° 0 mm 1 mps 752 mmHg 86%
08:00 +23°C° 0 mm 2 mps 752 mmHg 82%
09:00 +24°C° 0 mm 2 mps 752 mmHg 76%
10:00 +25°C° 0 mm 2 mps 752 mmHg 70%
11:00 +26°C° 0 mm 2 mps 752 mmHg 65%
12:00 +27°C° 0 mm 2 mps 752 mmHg 63%
13:00 +27°C° 0 mm 2 mps 751 mmHg 61%
14:00 +28°C° 0 mm 2 mps 751 mmHg 59%
15:00 +28°C° 0.1 mm 2 mps 751 mmHg 61%
16:00 +27°C° 0.1 mm 2 mps 751 mmHg 63%
17:00 +27°C° 0.1 mm 2 mps 750 mmHg 64%
18:00 +26°C° 0.1 mm 2 mps 750 mmHg 70%
19:00 +24°C° 0.1 mm 2 mps 750 mmHg 76%
20:00 +22°C° 0.1 mm 1 mps 750 mmHg 81%
21:00 +22°C° 0 mm 1 mps 751 mmHg 84%
22:00 +21°C° 0 mm 1 mps 751 mmHg 86%
23:00 +20°C° 0 mm 1 mps 751 mmHg 88%

Day after tomorrow, 10 August, Monday

Time Temperature Precipitation Wind Pressure Humidity
00:00 +20°C° 0 mm 1 mps 751 mmHg 89%
01:00 +20°C° 0 mm 1 mps 750 mmHg 90%
02:00 +19°C° 0 mm 1 mps 750 mmHg 91%
03:00 +19°C° 0 mm 1 mps 750 mmHg 91%
04:00 +18°C° 0 mm 1 mps 750 mmHg 92%
05:00 +18°C° 0 mm 1 mps 750 mmHg 92%
06:00 +19°C° 0 mm 1 mps 750 mmHg 88%
07:00 +21°C° 0 mm 1 mps 750 mmHg 84%
08:00 +21°C° 0 mm 2 mps 750 mmHg 79%
09:00 +24°C° 0 mm 2 mps 751 mmHg 74%
10:00 +25°C° 0 mm 2 mps 751 mmHg 68%
11:00 +26°C° 0 mm 2 mps 751 mmHg 62%
12:00 +27°C° 0 mm 2 mps 750 mmHg 59%
13:00 +28°C° 0 mm 2 mps 750 mmHg 56%
14:00 +28°C° 0 mm 2 mps 750 mmHg 53%
15:00 +28°C° 0 mm 2 mps 750 mmHg 54%
16:00 +28°C° 0 mm 1 mps 750 mmHg 54%
17:00 +28°C° 0 mm 1 mps 749 mmHg 55%
18:00 +26°C° 0.1 mm 1 mps 750 mmHg 62%
19:00 +24°C° 0.1 mm 1 mps 750 mmHg 70%
20:00 +22°C° 0.1 mm 1 mps 750 mmHg 77%
21:00 +22°C° 0.1 mm 1 mps 750 mmHg 80%
22:00 +21°C° 0.1 mm 1 mps 750 mmHg 82%
23:00 +20°C° 0.1 mm 1 mps 750 mmHg 84%

11 August, Tuesday

Time Temperature Precipitation Wind Pressure Humidity
00:00 +20°C° 0 mm 1 mps 750 mmHg 86%
01:00 +19°C° 0 mm 2 mps 750 mmHg 88%
02:00 +18°C° 0 mm 2 mps 750 mmHg 90%
03:00 +18°C° 0 mm 2 mps 750 mmHg 91%
04:00 +17°C° 0 mm 2 mps 750 mmHg 92%
05:00 +17°C° 0 mm 2 mps 750 mmHg 92%
06:00 +18°C° 0.1 mm 2 mps 750 mmHg 89%
07:00 +20°C° 0.1 mm 2 mps 750 mmHg 85%
08:00 +21°C° 0.1 mm 2 mps 750 mmHg 81%
09:00 +23°C° 0 mm 2 mps 750 mmHg 74%
10:00 +25°C° 0 mm 2 mps 750 mmHg 67%
11:00 +26°C° 0 mm 2 mps 751 mmHg 60%
12:00 +27°C° 0.4 mm 3 mps 750 mmHg 60%
13:00 +27°C° 0.4 mm 3 mps 750 mmHg 59%
14:00 +27°C° 0.4 mm 4 mps 750 mmHg 59%
15:00 +27°C° 0.7 mm 4 mps 750 mmHg 62%
16:00 +26°C° 0.7 mm 3 mps 750 mmHg 66%
17:00 +25°C° 0.7 mm 3 mps 750 mmHg 69%
18:00 +24°C° 0.1 mm 3 mps 751 mmHg 74%
19:00 +21°C° 0.1 mm 3 mps 751 mmHg 79%
20:00 +19°C° 0.1 mm 3 mps 751 mmHg 84%
21:00 +18°C° 0 mm 3 mps 751 mmHg 83%
22:00 +16°C° 0 mm 3 mps 751 mmHg 82%
23:00 +14°C° 0 mm 3 mps 752 mmHg 81%

12 August, Wednesday

Time Temperature Precipitation Wind Pressure Humidity
00:00 +14°C° 0 mm 3 mps 752 mmHg 83%
01:00 +13°C° 0 mm 3 mps 752 mmHg 86%
02:00 +12°C° 0 mm 3 mps 752 mmHg 89%
03:00 +12°C° 0 mm 3 mps 752 mmHg 89%
04:00 +12°C° 0 mm 3 mps 753 mmHg 89%
05:00 +13°C° 0 mm 2 mps 753 mmHg 89%
06:00 +13°C° 0 mm 3 mps 753 mmHg 83%
07:00 +14°C° 0 mm 3 mps 753 mmHg 76%
08:00 +15°C° 0 mm 4 mps 753 mmHg 70%
09:00 +17°C° 0 mm 4 mps 753 mmHg 64%
10:00 +18°C° 0 mm 4 mps 753 mmHg 59%
11:00 +20°C° 0 mm 4 mps 754 mmHg 54%
12:00 +20°C° 0 mm 4 mps 754 mmHg 53%
13:00 +20°C° 0 mm 4 mps 754 mmHg 53%
14:00 +21°C° 0 mm 4 mps 753 mmHg 52%
15:00 +21°C° 0 mm 4 mps 753 mmHg 54%
16:00 +20°C° 0 mm 4 mps 753 mmHg 56%
17:00 +20°C° 0 mm 4 mps 753 mmHg 58%
18:00 +18°C° 0 mm 3 mps 753 mmHg 64%
19:00 +16°C° 0 mm 2 mps 753 mmHg 71%
20:00 +15°C° 0 mm 2 mps 753 mmHg 77%
21:00 +14°C° 0 mm 1 mps 754 mmHg 80%
22:00 +13°C° 0 mm 1 mps 754 mmHg 82%
23:00 +12°C° 0 mm 1 mps 754 mmHg 85%

13 August, Thursday

Time Temperature Precipitation Wind Pressure Humidity
00:00 +12°C° 0 mm 1 mps 754 mmHg 86%
01:00 +12°C° 0 mm 1 mps 754 mmHg 87%
02:00 +11°C° 0 mm 1 mps 754 mmHg 88%
03:00 +11°C° 0 mm 1 mps 754 mmHg 89%
04:00 +11°C° 0 mm 1 mps 754 mmHg 89%
05:00 +10°C° 0 mm 1 mps 754 mmHg 90%
06:00 +12°C° 0 mm 1 mps 754 mmHg 84%
07:00 +14°C° 0 mm 1 mps 754 mmHg 77%
08:00 +16°C° 0 mm 1 mps 754 mmHg 71%
09:00 +16°C° 0 mm 0 mps 754 mmHg 66%
10:00 +18°C° 0 mm 0 mps 754 mmHg 60%
11:00 +20°C° 0 mm 0 mps 754 mmHg 55%
12:00 +20°C° 0 mm 0 mps 753 mmHg 53%
13:00 +21°C° 0 mm 0 mps 753 mmHg 52%
14:00 +21°C° 0 mm 0 mps 753 mmHg 50%
15:00 +23°C° 0 mm 1 mps 752 mmHg 51%
16:00 +22°C° 0 mm 1 mps 752 mmHg 52%
17:00 +22°C° 0 mm 1 mps 752 mmHg 54%
18:00 +21°C° 0 mm 1 mps 752 mmHg 59%
19:00 +19°C° 0 mm 1 mps 752 mmHg 64%
20:00 +16°C° 0 mm 1 mps 752 mmHg 69%
21:00 +16°C° 0 mm 1 mps 752 mmHg 73%
22:00 +15°C° 0 mm 1 mps 752 mmHg 76%
23:00 +14°C° 0 mm 1 mps 752 mmHg 79%
Show more